カタログに戻る

PEGASUS DEB

運用中PO
NORAD 25445·DEBRIS·🇺🇸 United States

打ち上げ May 19, 1994 から Vandenberg Space Force Base

Loading…

次のパス (今後24時間)

TLE

最新Source: Space-Track

元期: Sep 14, 2026, 08:13 UTC

1 25445U 94029ADZ 26257.34258738  .00001090  00000-0  14725-3 0  9998
2 25445  81.9877  19.5150 0128752  13.0564  15.1884 14.72562618549600

AllMySatでPEGASUS DEBをリアルタイム追跡

Download on the App Store